Location: Bletchingley
(51.2333°N, 0.1000°W)
Time: 05:24:27
(UTC+00:00)

Abrixas rocket - Pass Details

Date: 18 September 2020
Orbit: 329 x 337 km, 48.4° (Epoch: 20 October)

Event Time Altitude Azimuth Distance (km) Brightness Sun altitude
Rises 19:33:03 0° 254° (WSW) 2,096 6.7 -14.0°
Reaches altitude 10° 19:35:05 10° 248° (WSW) 1,258 5.4 -14.3°
Maximum altitude 19:37:47 44° 174° (S) 471 2.3 -14.7°
Enters shadow 19:38:17 38° 141° (SE) 519 2.3 -14.8°
